Regional Weather Roundup
Issued by NWS

Home | Current Version | Previous Version | Graphics & Text | Print | Product List | Glossary On
Versions: 1 2 3 4 5 6 7 8 9 10 11 12 13 14 15 16 17 18 19 20 21 22 23 24 25 26 27 28 29 30 31 32 33 34 35 36 37 38 39 40 41 42 43 44 45 46 47 48 49 50
000
ASUS43 KFSD 231810
RWRSD

WEATHER ROUNDUP FOR SOUTH DAKOTA
NATIONAL WEATHER SERVICE SIOUX FALLS SD
100 PM CDT THU OCT 23 2014

NOTE: "FAIR" INDICATES FEW OR NO CLOUDS BELOW 12,000 FEET WITH NO
SIGNIFICANT WEATHER AND/OR OBSTRUCTIONS TO VISIBILITY.


SDZ001>005-009-010-012>017-231900-
NORTHWEST AND NORTH CENTRAL SOUTH DAKOTA

CITY           SKY/WX    TMP DP  RH WIND       PRES   REMARKS
BUFFALO          N/A     66  29  24 S10       29.85S
FAITH            N/A     66  31  27 S13       29.92F
MOBRIDGE       SUNNY     62  39  42 S8        29.90F
$$

SDZ012>016-024>037-041>051-057-063-072>074-231900-
SOUTHWEST AND SOUTH CENTRAL SOUTH DAKOTA

CITY           SKY/WX    TMP DP  RH WIND       PRES   REMARKS
RAPID CTY ARPT PTSUNNY   63  30  28 SE6       29.95F
PIERRE         SUNNY     61  38  42 S5        29.94F
CUSTER         PTSUNNY   56  21  25 SW10G20   30.02F
ELLSWORTH AFB  PTSUNNY   64  26  23 SE8       29.94F
PHILIP         MOSUNNY   66  30  26 SW8       29.94F
PINE RIDGE     PTSUNNY   64  35  34 W8        29.99F
SPEARFISH      FAIR      61  28  29 W7        29.96S
WINNER         FAIR      69  31  24 VRB3      29.98F
$$

SDZ004>011-016>023-039-040-231900-
NORTHEAST SOUTH DAKOTA

CITY           SKY/WX    TMP DP  RH WIND       PRES   REMARKS
ABERDEEN       SUNNY     61  47  59 S8        29.94F
WATERTOWN      SUNNY     62  47  57 S8        29.98F
SISSETON         N/A     70  36  28 W13       29.92F
$$

SDZ017-020-022-023-036>040-048>070-231900-
SOUTHEAST SOUTH DAKOTA

CITY           SKY/WX    TMP DP  RH WIND       PRES   REMARKS
SIOUX FALLS    MOSUNNY   65  48  54 SW6       30.02F
HURON          SUNNY     64  50  60 VRB7      29.97F
CHAMBERLAIN    SUNNY     62  45  54 SE3       29.97F
MITCHELL       SUNNY     68  49  50 S9        30.00F
YANKTON        SUNNY     64  52  63 SE8       30.02F
$$

ABBREVIATIONS USED IN REMARKS
   TC - TEMPERATURE IN CELSIUS
  WCI - WIND CHILL INDEX
   HX - HEAT INDEX
  VSB - VISIBILITY




USA.gov is the U.S. government's official web portal to all federal, state and local government web resources and services.